Location: Napa Junction
(38.1874°N, 122.2508°W)
Time: 15:26:50
(UTC+00:00)

CZ-3 R/B - Pass Details

Date: 08 September 2024
Orbit: 506 x 10057 km, 28.3° (Epoch: 07 October)

Event Time Altitude Azimuth Distance (km) Brightness Sun altitude
Exits shadow 13:04:30 - 246° (WSW) 8,068 5.5 -8.7°
Reaches altitude 10° 13:06:20 10° 245° (WSW) 7,525 5.4 -8.3°
Maximum altitude 13:23:42 43° 182° (S) 2,194 3.3 -5.0°
Drops below altitude 10° 13:29:37 10° 111° (ESE) 2,669 4.9 -3.9°
Sets 13:31:26 0° 103° (ESE) 3,276 5.8 -3.5°
